[[{"header":{"parameterUnit":"m.s-1","parameterCategory":1,"la1":30.2991,"la2":30.254,"lo1":-89.0895,"lo2":-89.0444,"dx":0.0017,"dy":0.0017,"nx":28,"ny":28,"refTime":"2022-11-17T15:00:00:Z","depth":0,"parameterNumber":2,"parameterNumberName":"U-component_of_WINDS"},"data":[0,0,0,0,0,0,0,0,0,0,0,0,0,0,0,0,0,0,0,0,0,0,0,0,0,0,0,0,0,0,0,0,0,0,0,0,0,0,0,0,0,0,0,0,0,0,0,0,0,0,0,0,0,0,0,0,0,0,-6.2595,-6.2596,0,-6.2749,-6.2751,-6.2753,-6.2642,-6.2637,-6.2632,-6.2627,-6.2784,-6.2793,-6.2801,0,0,0,0,0,0,0,0,0,0,0,0,0,-6.2201,-6.2209,-6.2594,-6.2596,-6.2598,-6.2749,-6.2751,-6.2753,-6.2643,-6.2637,-6.2631,-6.2625,-6.2781,-6.2792,-6.2802,0,0,0,0,0,0,0,0,0,0,0,0,0,-6.2366,-6.2211,-6.2594,-6.2561,-6.256,-6.2749,-6.2751,-6.2754,-6.2644,-6.2636,-6.2629,-6.2622,-6.2778,-6.2791,-6.2804,-6.3033,0,0,-6.2844,-6.285,0,0,0,0,0,0,0,0,-6.2356,-6.238,-6.2564,-6.2564,-6.2563,-6.2669,-6.267,-6.2847,-6.2646,-6.2612,-6.2627,-6.2619,-6.2752,-6.2766,-6.2812,-6.304,-6.3047,-6.2845,-6.2853,-6.2859,-6.2862,0,0,0,0,0,0,0,-6.2345,-6.2373,-6.2655,-6.2567,-6.2566,-6.2538,-6.2553,-6.2703,-6.2721,-6.2614,-6.2607,-6.2627,-6.275,-6.2799,-6.2815,-6.3049,-6.2845,-6.2856,-6.2864,-6.287,-6.3473,-6.3481,0,0,0,0,0,0,-6.2337,-6.2364,-6.2651,-6.266,-6.2439,-6.2551,-6.2568,-6.2642,-6.2719,-6.2724,-6.2633,-6.2621,-6.278,-6.2799,-6.282,-6.3093,-6.2859,-6.2871,-6.2878,-6.3465,-6.3475,-6.3483,0,0,0,0,0,0,-6.2329,-6.2364,-6.2644,-6.251,-6.2544,-6.2566,-6.265,-6.2649,-6.2698,-6.2733,-6.2736,-6.268,-6.2775,-6.2801,-6.2981,-6.3097,-6.2877,-6.2889,-6.3455,-6.3468,-6.3479,-6.3641,0,0,0,0,0,0,-6.2318,-6.2361,-6.2449,-6.2513,-6.2551,-6.2804,-6.2657,-6.2657,-6.2722,-6.2707,-6.2778,-6.2783,-6.2772,-6.2962,-6.2994,-6.3111,-6.2899,-6.3445,-6.3461,-6.3475,-6.3626,-6.3658,-6.3685,0,0,0,0,0,-6.2304,-6.2488,-6.2454,-6.2489,-6.2662,-6.2811,-6.2833,-6.2816,-6.2731,-6.2819,-6.2842,-6.2781,-6.3079,-6.2981,-6.3016,-6.3139,-6.3437,-6.3456,-6.3474,-6.3613,-6.3651,-6.3684,0,0,0,0,0,0,-6.2437,-6.2496,-6.2459,-6.2669,-6.2736,-6.2792,-6.2902,-6.2858,-6.295,-6.2933,-6.2908,-6.2925,-6.3113,-6.3144,-6.3034,-6.3365,-6.3245,-6.3271,-6.3338,-6.3375,-6.3404,-6.3393,-6.291,0,0,0,0,0,-6.2491,-6.2607,-6.2652,-6.2833,-6.2869,-6.288,-6.2945,-6.2926,-6.2994,-6.3022,-6.3057,-6.3125,-6.3234,-6.3306,-6.3408,-6.363,-6.3643,-6.3731,-6.3761,-6.3785,-6.3808,-6.3928,-6.3967,-6.3544,-6.3543,-6.3543,0,0,-6.2603,-6.2649,-6.2724,-6.2861,-6.2911,-6.3032,-6.2905,-6.3038,-6.3127,-6.3042,-6.3213,-6.3242,-6.3316,-6.3518,-6.3608,-6.3549,-6.3928,-6.3808,-6.3827,-6.3837,-6.395,-6.3991,-6.4026,-6.3556,-6.3554,-6.3552,0,0,-6.2869,-6.2916,-6.3072,-6.3124,-6.3201,-6.3208,-6.3245,-6.3309,-6.3324,-6.3497,-6.3435,-6.354,-6.3728,-6.3784,-6.3837,-6.4124,-6.4071,-6.4158,-6.4312,-6.4429,-6.4463,-6.4492,-6.4595,-6.4632,-6.4181,-6.4181,-6.4181,0,-6.2998,-6.3179,-6.3158,-6.3296,-6.3358,-6.3286,-6.3444,-6.3496,-6.3602,-6.3646,-6.3578,-6.3813,-6.3858,-6.4072,-6.4142,-6.4187,-6.4229,-6.415,-6.446,-6.4489,-6.4516,-6.4614,-6.4652,-6.4191,-6.419,-6.4189,-6.4188,0,-6.3334,-6.346,-6.3577,-6.3682,-6.3757,-6.3904,-6.3905,-6.3983,-6.3959,-6.3972,-6.4148,-6.4199,-6.4311,-6.436,-6.4337,-6.4571,-6.4532,-6.4463,-6.4341,-6.4567,-6.4658,-6.4695,-6.4205,-6.4202,-6.4199,-6.4196,0,0,-6.3688,-6.378,-6.3823,-6.387,-6.395,-6.4046,-6.419,-6.43,-6.4367,-6.4443,-6.4563,-6.4724,-6.466,-6.472,-6.4703,-6.4805,-6.503,-6.4723,-6.4725,-6.4779,-6.5291,-6.5343,-6.5387,-6.4995,-6.5002,-6.5008,-6.5285,0,-6.3958,-6.421,-6.4195,-6.4431,-6.4547,-6.4481,-6.4606,-6.4668,-6.4685,-6.4785,-6.4802,-6.4917,-6.4825,-6.4861,-6.4959,-6.4982,-6.5133,-6.4962,-6.5107,-6.5112,-6.509,-6.5434,-6.5489,-6.5748,-6.532,-6.5326,-6.5331,0,-6.4307,-6.4395,-6.4644,-6.4706,-6.4754,-6.4867,-6.4966,-6.5063,-6.5132,-6.5137,-6.5205,-6.517,-6.5315,-6.519,-6.539,-6.5274,-6.5332,-6.5352,-6.5362,-6.5375,-6.5235,-6.5457,-6.583,-6.5869,-6.5387,-6.5382,-6.5378,0,-6.4541,-6.4721,-6.4893,-6.4935,-6.5012,-6.5093,-6.5129,-6.5191,-6.5258,-6.5344,-6.5387,-6.5489,-6.5546,-6.5625,-6.5619,-6.5529,-6.5822,-6.5696,-6.5829,-6.583,-6.5894,-6.589,-6.6283,-6.5932,-6.5931,-6.5931,-6.593,0,-6.4844,-6.4998,-6.4999,-6.5105,-6.5276,-6.5257,-6.5427,-6.5453,-6.5509,-6.5618,-6.5567,-6.5671,-6.5656,-6.576,-6.5756,-6.5922,-6.5948,-6.5955,-6.5952,-6.596,-6.5959,-6.5998,-6.598,-6.5941,-6.5939,-6.5937,-6.5935,0,-6.5134,-6.5141,-6.5323,-6.5382,-6.54,-6.5523,-6.5573,-6.5673,-6.5684,-6.5824,-6.5855,-6.5874,-6.5994,-6.5996,-6.6133,-6.613,-6.6332,-6.6309,-6.631,-6.6305,-6.6438,-6.6426,-6.6869,-6.6926,-6.6539,-6.6542,-6.6545,0,-6.5327,-6.5444,-6.5515,-6.5585,-6.5626,-6.574,-6.5807,-6.5794,-6.5866,-6.5954,-6.6044,-6.6159,-6.625,-6.6444,-6.647,-6.6575,-6.6553,-6.6702,-6.6569,-6.6573,-6.6556,-6.6549,-6.6561,-6.6728,-6.6732,-6.6736,-6.6738,0,-6.567,-6.5667,-6.5767,-6.587,-6.5953,-6.6032,-6.6106,-6.6166,-6.616,-6.6245,-6.6367,-6.6438,-6.6578,-6.6693,-6.6794,-6.683,-6.6784,-6.678,-6.6816,-6.6826,-6.6821,-6.6826,-6.6381,-6.677,-6.6767,-6.6765,-6.6763,-6.6762,-6.5917,-6.6018,-6.6084,-6.6198,-6.6252,-6.6322,-6.6419,-6.6443,-6.6545,-6.6658,-6.6643,-6.678,-6.6845,-6.6977,-6.7022,-6.7128,-6.7076,-6.7129,-6.7142,-6.7155,-6.717,-6.6804,-6.7146,-6.7145,-6.7144,-6.7143,-6.7143,0,-6.6257,-6.6296,-6.6401,-6.6506,-6.6595,-6.6544,-6.6623,-6.6701,-6.6822,-6.6887,-6.6978,-6.7119,-6.723,-6.7265,-6.7372,-6.745,-6.7432,-6.7479,-6.7473,-6.7482,-6.721,-6.7168,-6.7492,-6.7492,-6.7492,-6.7492,-6.7492,-6.7492,-6.6444,-6.6613,-6.6619,-6.6813,-6.6851,-6.6984,-6.7034,-6.7098,-6.715,-6.731,-6.7402,-6.7424,-6.7477,-6.7588,-6.7688,-6.7695,-6.7737,-6.7793,-6.7792,-6.7537,-6.7502,-6.7468,-6.7428,-6.7802,-6.7803,-6.8056,-6.8058,-6.806]},{"header":{"parameterUnit":"m.s-1","parameterCategory":1,"la1":30.2991,"la2":30.254,"lo1":-89.0895,"lo2":-89.0444,"dx":0.0017,"dy":0.0017,"nx":28,"ny":28,"refTime":"2022-11-17T15:00:00:Z","depth":0,"parameterNumber":3,"parameterNumberName":"V-component_of_WINDS"},"data":[0,0,0,0,0,0,0,0,0,0,0,0,0,0,0,0,0,0,0,0,0,0,0,0,0,0,0,0,0,0,0,0,0,0,0,0,0,0,0,0,0,0,0,0,0,0,0,0,0,0,0,0,0,0,0,0,0,0,-2.1781,-2.1781,0,-2.1799,-2.1799,-2.18,-2.1752,-2.175,-2.1749,-2.1747,-2.1767,-2.1769,-2.1771,0,0,0,0,0,0,0,0,0,0,0,0,0,-2.1705,-2.1707,-2.1781,-2.1781,-2.1781,-2.1799,-2.1799,-2.18,-2.1752,-2.175,-2.1748,-2.1747,-2.1766,-2.1769,-2.1771,0,0,0,0,0,0,0,0,0,0,0,0,0,-2.1732,-2.1707,-2.1781,-2.176,-2.1758,-2.1799,-2.1799,-2.18,-2.1752,-2.175,-2.1748,-2.1746,-2.1766,-2.1768,-2.1771,-2.1834,0,0,-2.178,-2.1781,0,0,0,0,0,0,0,0,-2.1731,-2.1735,-2.1763,-2.1761,-2.1759,-2.1771,-2.178,-2.1811,-2.1753,-2.1755,-2.1747,-2.1745,-2.177,-2.1773,-2.1781,-2.1835,-2.1836,-2.178,-2.1782,-2.1783,-2.1784,0,0,0,0,0,0,0,-2.1729,-2.1734,-2.1788,-2.1763,-2.1761,-2.1749,-2.1751,-2.1786,-2.1775,-2.1754,-2.1751,-2.1754,-2.1769,-2.1778,-2.1781,-2.1836,-2.178,-2.1783,-2.1785,-2.1786,-2.1941,-2.1943,0,0,0,0,0,0,-2.173,-2.1733,-2.1788,-2.1789,-2.1739,-2.1753,-2.1754,-2.1769,-2.1774,-2.1773,-2.1755,-2.1751,-2.1774,-2.1778,-2.1782,-2.1854,-2.1783,-2.1786,-2.1788,-2.1939,-2.1941,-2.1944,0,0,0,0,0,0,-2.1728,-2.1735,-2.1787,-2.176,-2.1765,-2.1756,-2.1774,-2.1771,-2.178,-2.1775,-2.1773,-2.1767,-2.1773,-2.1778,-2.1821,-2.1854,-2.1787,-2.179,-2.1936,-2.1939,-2.1943,-2.2001,0,0,0,0,0,0,-2.1726,-2.1735,-2.1759,-2.1761,-2.1767,-2.1826,-2.1776,-2.1773,-2.1785,-2.178,-2.1785,-2.1784,-2.1771,-2.1817,-2.1824,-2.1857,-2.1792,-2.1933,-2.1937,-2.1942,-2.1996,-2.2006,-2.2015,0,0,0,0,0,-2.1724,-2.1775,-2.176,-2.1767,-2.1797,-2.1828,-2.1832,-2.1816,-2.1788,-2.1812,-2.1808,-2.1784,-2.185,-2.1822,-2.1829,-2.1864,-2.1931,-2.1936,-2.1941,-2.1992,-2.2004,-2.2015,0,0,0,0,0,0,-2.1778,-2.1775,-2.1758,-2.1812,-2.1821,-2.182,-2.185,-2.183,-2.1847,-2.1841,-2.1821,-2.1822,-2.1869,-2.1871,-2.184,-2.1924,-2.1885,-2.1892,-2.1921,-2.1933,-2.1942,-2.1941,-2.1795,0,0,0,0,0,-2.1796,-2.1822,-2.1818,-2.1865,-2.187,-2.1859,-2.1872,-2.1859,-2.1867,-2.1871,-2.1871,-2.188,-2.1902,-2.1918,-2.1938,-2.1996,-2.1996,-2.2023,-2.2033,-2.2041,-2.2047,-2.2076,-2.2088,-2.1962,-2.1962,-2.1962,0,0,-2.1834,-2.1835,-2.1853,-2.1876,-2.1881,-2.1908,-2.1863,-2.1893,-2.1913,-2.1876,-2.1916,-2.1916,-2.1925,-2.1976,-2.1998,-2.1979,-2.2082,-2.2047,-2.2054,-2.2056,-2.2083,-2.2095,-2.2106,-2.1965,-2.1965,-2.1964,0,0,-2.1916,-2.192,-2.196,-2.1965,-2.1973,-2.1965,-2.1975,-2.1977,-2.1976,-2.2016,-2.1988,-2.2011,-2.2051,-2.2058,-2.2067,-2.215,-2.2128,-2.2157,-2.2206,-2.2235,-2.2245,-2.2254,-2.2283,-2.2294,-2.2164,-2.2164,-2.2164,0,-2.1962,-2.2002,-2.1983,-2.2015,-2.2025,-2.1992,-2.2031,-2.2038,-2.2053,-2.2061,-2.2038,-2.2086,-2.209,-2.2141,-2.2161,-2.217,-2.218,-2.2157,-2.2245,-2.2254,-2.2262,-2.2289,-2.2301,-2.2167,-2.2167,-2.2167,-2.2166,0,-2.2057,-2.2085,-2.2116,-2.2129,-2.2144,-2.2179,-2.2165,-2.2182,-2.2167,-2.2162,-2.2203,-2.2206,-2.2226,-2.2237,-2.2223,-2.2286,-2.2273,-2.2249,-2.2209,-2.2278,-2.2303,-2.2314,-2.2172,-2.2171,-2.217,-2.2169,0,0,-2.2175,-2.2177,-2.2189,-2.2194,-2.22,-2.2221,-2.2254,-2.2273,-2.2287,-2.2298,-2.2326,-2.2359,-2.2336,-2.2346,-2.2333,-2.2358,-2.2423,-2.233,-2.233,-2.2347,-2.2492,-2.251,-2.2523,-2.2409,-2.2411,-2.2412,-2.2491,0,-2.2256,-2.2313,-2.2297,-2.2354,-2.2379,-2.2347,-2.2376,-2.2383,-2.2378,-2.2398,-2.2393,-2.2417,-2.2385,-2.2391,-2.2415,-2.2411,-2.2452,-2.2405,-2.2434,-2.2435,-2.2433,-2.2536,-2.2556,-2.263,-2.2501,-2.2502,-2.2504,0,-2.2358,-2.2372,-2.2432,-2.2432,-2.2442,-2.2468,-2.2483,-2.2503,-2.251,-2.2505,-2.2515,-2.2496,-2.2529,-2.249,-2.2534,-2.2502,-2.2513,-2.2513,-2.2515,-2.2518,-2.2474,-2.2541,-2.2653,-2.2664,-2.2519,-2.2518,-2.2517,0,-2.2437,-2.2471,-2.251,-2.2516,-2.2518,-2.2537,-2.2539,-2.2543,-2.2555,-2.2568,-2.2576,-2.2593,-2.2603,-2.2617,-2.2603,-2.2575,-2.2649,-2.2609,-2.2646,-2.2646,-2.2663,-2.2662,-2.2779,-2.2671,-2.2671,-2.267,-2.267,0,-2.2529,-2.2567,-2.2546,-2.257,-2.2611,-2.2591,-2.2633,-2.2631,-2.2635,-2.2658,-2.2632,-2.2654,-2.2635,-2.2656,-2.2645,-2.2683,-2.2688,-2.2684,-2.2681,-2.2687,-2.2687,-2.2694,-2.2688,-2.2673,-2.2673,-2.2672,-2.2672,0,-2.2624,-2.2612,-2.2653,-2.2651,-2.2651,-2.2681,-2.2679,-2.2702,-2.2694,-2.2724,-2.273,-2.272,-2.2743,-2.273,-2.2754,-2.2747,-2.2796,-2.2786,-2.2794,-2.2791,-2.2829,-2.2825,-2.2953,-2.2969,-2.2851,-2.2852,-2.2853,0,-2.2683,-2.2711,-2.2712,-2.2725,-2.2728,-2.275,-2.2762,-2.2743,-2.2757,-2.2765,-2.2787,-2.2807,-2.2823,-2.2861,-2.2855,-2.2873,-2.2863,-2.2907,-2.2866,-2.287,-2.2863,-2.2862,-2.2864,-2.2915,-2.2917,-2.2918,-2.2919,0,-2.279,-2.2782,-2.2799,-2.2815,-2.2829,-2.284,-2.285,-2.2862,-2.2843,-2.286,-2.2882,-2.2894,-2.2918,-2.2939,-2.2954,-2.2955,-2.2934,-2.2932,-2.2941,-2.2947,-2.295,-2.2948,-2.2816,-2.2929,-2.2928,-2.2927,-2.2927,-2.2926,-2.2868,-2.2891,-2.2895,-2.2915,-2.2919,-2.2928,-2.2949,-2.2944,-2.2962,-2.298,-2.2967,-2.2994,-2.2999,-2.3017,-2.3021,-2.3042,-2.3025,-2.3038,-2.3042,-2.3046,-2.305,-2.2947,-2.3045,-2.3045,-2.3044,-2.3044,-2.3044,0,-2.2973,-2.2973,-2.2991,-2.3004,-2.302,-2.2998,-2.3006,-2.3021,-2.3045,-2.3051,-2.3066,-2.3092,-2.3111,-2.3107,-2.3125,-2.3142,-2.3133,-2.3147,-2.3146,-2.3146,-2.3065,-2.3055,-2.3154,-2.3154,-2.3154,-2.3154,-2.3154,-2.3154,-2.3029,-2.3066,-2.3058,-2.3097,-2.3097,-2.3123,-2.313,-2.3137,-2.3142,-2.3172,-2.3187,-2.3184,-2.3186,-2.3203,-2.322,-2.3218,-2.3226,-2.3244,-2.3239,-2.3163,-2.3152,-2.3142,-2.3132,-2.3246,-2.3246,-2.3318,-2.3318,-2.3319]}]]